| time (UTC) | temp C | wind direction | speed KPH | gust KPH | rain 1hr cm | rain 24hr cm | rain mn cm | humidity % | barometer mb |
| 20260503030028 | 16 | 90 | 1.6 | 3.2 | 0.00 | 0.00 | 0.00 | 39 | 1016.1 |
| 20260503024522 | 16 | 90 | 0.0 | 4.8 | 0.00 | 0.00 | 0.00 | 41 | 1016.0 |
| 20260503023021 | 17 | 76 | 1.6 | 3.2 | 0.00 | 0.00 | 0.00 | 43 | 1016.0 |
| 20260503021522 | 17 | 62 | 1.6 | 3.2 | 0.00 | 0.00 | 0.00 | 43 | 1016.0 |
| 20260503020022 | 18 | 17 | 3.2 | 6.4 | 0.00 | 0.00 | 0.00 | 1015.9 | |
| 20260503014527 | 18 | 350 | 3.2 | 6.4 | 0.00 | 0.00 | 0.00 | 36 | 1015.9 |
| 20260503011524 | 20 | 347 | 4.8 | 12.9 | 0.00 | 0.00 | 0.00 | 37 | 1016.0 |
| 20260503010027 | 20 | 336 | 4.8 | 9.7 | 0.00 | 0.00 | 0.00 | 37 | 1016.1 |
| 20260503004526 | 20 | 321 | 4.8 | 11.3 | 0.00 | 0.00 | 0.00 | 34 | 1016.0 |
| 20260503003023 | 20 | 352 | 6.4 | 11.3 | 0.00 | 0.00 | 0.00 | 31 | 1015.9 |
| 20260503001524 | 20 | 51 | 8.0 | 12.9 | 0.00 | 0.00 | 0.00 | 28 | 1016.0 |
| 20260503000018 | 21 | 5 | 8.0 | 12.9 | 0.00 | 0.00 | 0.00 | 25 | 1016.0 |
| 20260502234529 | 21 | 13 | 4.8 | 12.9 | 0.00 | 0.00 | 0.00 | 24 | 1016.0 |
| 20260502233028 | 21 | 352 | 4.8 | 12.9 | 0.00 | 0.00 | 0.00 | 26 | 1016.1 |
| 20260502231526 | 21 | 42 | 9.7 | 14.5 | 0.00 | 0.00 | 0.00 | 29 | 1016.2 |
| 20260502230033 | 20 | 45 | 8.0 | 16.1 | 0.00 | 0.00 | 0.00 | 24 | 1016.5 |
| 20260502224525 | 20 | 14 | 8.0 | 14.5 | 0.00 | 0.00 | 0.00 | 27 | 1016.6 |
| 20260502223024 | 20 | 42 | 9.7 | 17.7 | 0.00 | 0.00 | 0.00 | 32 | 1016.9 |
| 20260502221523 | 20 | 11 | 9.7 | 16.1 | 0.00 | 0.00 | 0.00 | 34 | 1017.0 |
| 20260502220026 | 20 | 42 | 6.4 | 12.9 | 0.00 | 0.00 | 0.00 | 37 | 1017.2 |
| 20260502214519 | 20 | 330 | 8.0 | 14.5 | 0.00 | 0.00 | 0.00 | 34 | 1017.5 |
| 20260502213027 | 20 | 352 | 6.4 | 14.5 | 0.00 | 0.00 | 0.00 | 30 | 1017.6 |
| 20260502211526 | 19 | 347 | 9.7 | 16.1 | 0.00 | 0.00 | 0.00 | 38 | 1017.7 |
| 20260502210030 | 18 | 360 | 8.0 | 14.5 | 0.00 | 0.00 | 0.00 | 40 | 1017.8 |
| 20260502203010 | 18 | 352 | 8.0 | 14.5 | 0.00 | 0.00 | 0.00 | 38 | 1018.2 |
| 20260502201505 | 18 | 346 | 8.0 | 14.5 | 0.00 | 0.00 | 0.00 | 39 | 1018.3 |
| 20260502200024 | 18 | 352 | 12.9 | 17.7 | 0.00 | 0.00 | 0.00 | 42 | 1018.5 |
| 20260502194525 | 18 | 17 | 9.7 | 16.1 | 0.00 | 0.00 | 0.00 | 38 | 1018.6 |
| 20260502193026 | 18 | 342 | 6.4 | 14.5 | 0.00 | 0.00 | 0.00 | 37 | 1018.6 |
| 20260502190016 | 18 | 315 | 3.2 | 8.0 | 0.00 | 0.00 | 0.00 | 31 | 1018.8 |
| 20260502184536 | 17 | 307 | 4.8 | 8.0 | 0.00 | 0.00 | 0.00 | 35 | 1018.9 |
| 20260502183027 | 16 | 13 | 4.8 | 8.0 | 0.00 | 0.00 | 0.00 | 37 | 1019.2 |
| 20260502181518 | 16 | 350 | 6.4 | 8.0 | 0.00 | 0.00 | 0.00 | 40 | 1019.4 |
| 20260502163016 | 13 | 71 | 6.4 | 9.7 | 0.00 | 0.00 | 0.00 | 48 | 1019.8 |
| 20260502161527 | 13 | 36 | 4.8 | 9.7 | 0.00 | 0.00 | 0.00 | 46 | 1020.0 |
| 20260502151525 | 10 | 223 | 6.4 | 8.0 | 0.00 | 0.00 | 0.00 | 53 | 1020.4 |
| 20260502123028 | 5 | 224 | 3.2 | 3.2 | 0.00 | 0.00 | 0.00 | 58 | 1020.3 |
| 20260502121527 | 5 | 217 | 3.2 | 6.4 | 0.00 | 0.00 | 0.00 | 58 | 1020.2 |
| 20260502114508 | 6 | 217 | 3.2 | 8.0 | 0.00 | 0.00 | 0.00 | 54 | 1020.1 |
| 20260502113006 | 6 | 166 | 0.0 | 8.0 | 0.00 | 0.00 | 0.00 | 54 | 1020.3 |
| 20260502104510 | 6 | 214 | 4.8 | 8.0 | 0.00 | 0.00 | 0.00 | 55 | 1020.1 |
| 20260502103008 | 6 | 185 | 3.2 | 6.4 | 0.00 | 0.00 | 0.00 | 55 | 1020.0 |
| 20260502101509 | 6 | 202 | 1.6 | 8.0 | 0.00 | 0.00 | 0.00 | 54 | 1019.8 |
| 20260502091511 | 7 | 159 | 4.8 | 11.3 | 0.00 | 0.00 | 0.00 | 49 | 1019.6 |
| 20260502071513 | 10 | 261 | 0.0 | 9.7 | 0.00 | 0.00 | 0.00 | 45 | 1019.6 |
| 20260502070012 | 10 | 234 | 3.2 | 16.1 | 0.00 | 0.00 | 0.00 | 44 | 1019.4 |
| 20260502064511 | 10 | 148 | 12.9 | 16.1 | 0.00 | 0.00 | 0.00 | 44 | 1019.5 |
| 20260502061519 | 10 | 196 | 3.2 | 14.5 | 0.00 | 0.00 | 0.00 | 43 | 1019.3 |
| 20260502060019 | 11 | 116 | 11.3 | 16.1 | 0.00 | 0.00 | 0.00 | 42 | 1019.1 |
| 20260502054516 | 11 | 130 | 11.3 | 17.7 | 0.00 | 0.00 | 0.00 | 40 | 1019.1 |
| 20260502053018 | 11 | 148 | 12.9 | 19.3 | 0.00 | 0.00 | 0.00 | 40 | 1018.9 |
| 20260502051519 | 12 | 146 | 12.9 | 19.3 | 0.00 | 0.00 | 0.00 | 39 | 1018.9 |
| 20260502050012 | 12 | 146 | 11.3 | 16.1 | 0.00 | 0.00 | 0.00 | 40 | 1018.9 |
| 20260502044512 | 12 | 163 | 11.3 | 17.7 | 0.00 | 0.00 | 0.00 | 40 | 1018.9 |
| 20260502043020 | 12 | 126 | 12.9 | 22.5 | 0.00 | 0.00 | 0.00 | 37 | 1018.9 |
| 20260502041524 | 12 | 128 | 12.9 | 17.7 | 0.00 | 0.00 | 0.00 | 38 | 1018.9 |
| 20260502040022 | 12 | 141 | 11.3 | 17.7 | 0.00 | 0.00 | 0.00 | 37 | 1018.8 |
| 20260502034520 | 13 | 129 | 9.7 | 16.1 | 0.00 | 0.00 | 0.00 | 37 | 1018.6 |
| 20260502033025 | 13 | 157 | 6.4 | 12.9 | 0.00 | 0.00 | 0.00 | 36 | 1018.5 |
| 20260502031522 | 13 | 194 | 1.6 | 8.0 | 0.00 | 0.00 | 0.00 | 37 | 1018.4 |